HS1AXC-1 Weather Reports


time (UTC)temp
C
wind
direction
speed
KPH
gust
KPH
rain 1hr
cm
rain 24hr
cm
rain mn
cm
humidity
%
barometer
mb
20260505000030 30 0 0.0 0.0 0.00 0.00 0.00 86 1011.0
20260504235107 30 0 0.0 0.0 0.00 0.00 0.00 84 1011.0
20260504234045 30 0 0.0 0.0 0.00 0.00 0.00 86 1010.0
20260504233023 29 0 0.0 0.0 0.00 0.00 0.00 86 1010.0
20260504232000 29 0 0.0 0.0 0.00 0.00 0.00 86 1010.0
20260504230938 29 0 0.0 0.0 0.00 0.00 0.00 85 1010.0
20260504225916 29 0 0.0 0.0 0.00 0.00 0.00 85 1010.0
20260504224854 30 0 0.0 0.0 0.00 0.00 0.00 86 1010.0
20260504223832 29 0 0.0 0.0 0.00 0.00 0.00 86 1010.0
20260504222810 30 0 0.0 0.0 0.00 0.00 0.00 84 1010.0
20260504221748 29 0 0.0 0.0 0.00 0.00 0.00 84 1009.0
20260504220726 30 0 0.0 0.0 0.00 0.00 0.00 82 1009.0
20260504215704 29 0 0.0 0.0 0.00 0.00 0.00 83 1009.0
20260504214642 30 0 0.0 0.0 0.00 0.00 0.00 84 1010.0
20260504213620 30 0 0.0 0.0 0.00 0.00 0.00 82 1010.0
20260504212558 30 0 0.0 0.0 0.00 0.00 0.00 84 1010.0
20260504211536 30 0 0.0 0.0 0.00 0.00 0.00 86 1010.0
20260504210514 30 0 0.0 0.0 0.00 0.00 0.00 87 1010.0
20260504205452 30 0 0.0 0.0 0.00 0.00 0.00 88 1010.0
20260504204430 30 0 0.0 0.0 0.00 0.00 0.00 89 1010.0
20260504203408 30 0 0.0 0.0 0.00 0.00 0.00 90 1010.0
20260504202346 30 0 0.0 0.0 0.00 0.00 0.00 89 1011.0
20260504201324 30 0 0.0 0.0 0.00 0.00 0.00 88 1011.0
20260504200301 30 0 0.0 0.0 0.00 0.00 0.00 87 1010.0
20260504195239 30 0 0.0 0.0 0.00 0.00 0.00 87 1010.0
20260504194217 30 0 0.0 0.0 0.00 0.00 0.00 86 1010.0
20260504193155 30 0 0.0 0.0 0.00 0.00 0.00 85 1010.0
20260504191936 30 0 0.0 0.0 0.00 0.00 0.00 86 1010.0
20260504191011 30 0 0.0 0.0 0.00 0.00 0.00 87 1010.0
20260504185949 30 0 0.0 0.0 0.00 0.00 0.00 89 1010.0
20260504184927 29 0 0.0 0.0 0.00 0.00 0.00 92 1010.0
20260504183905 30 0 0.0 0.0 0.00 0.00 0.00 89 1011.0
20260504182843 28 0 0.0 0.0 0.00 0.00 0.00 96 1011.0
20260504182231 30 0 0.0 0.0 0.00 0.00 0.00 90 1011.0
20260504181311 29 0 0.0 0.0 0.00 0.00 0.00 91 1011.0
20260504180249 29 0 0.0 0.0 0.00 0.00 0.00 95 1011.0
20260504175543 30 0 0.0 0.0 0.00 0.00 0.00 87 1011.0
20260504174520 30 0 0.0 0.0 0.00 0.00 0.00 87 1012.0
20260504173458 30 0 0.0 0.0 0.00 0.00 0.00 89 1012.0
20260504172436 30 0 0.0 0.0 0.00 0.00 0.00 87 1012.0
20260504171414 30 0 0.0 0.0 0.00 0.00 0.00 87 1012.0
20260504170352 30 0 0.0 0.0 0.00 0.00 0.00 90 1013.0
20260504160225 31 0 0.0 0.0 0.00 0.00 0.00 93 1011.0
20260504150158 31 0 0.0 0.0 0.00 0.00 0.00 91 1012.0
20260504141008 31 0 0.0 0.0 0.00 0.00 0.00 92 1011.0
20260504130155 31 0 0.0 0.0 0.00 0.00 0.00 86 1009.0
20260504081445 37 0 0.0 0.0 0.00 0.00 0.00 59 1007.0
20260504080423 38 0 0.0 0.0 0.00 0.00 0.00 50 1007.0
20260504070211 39 0 0.0 0.0 0.00 0.00 0.00 50 1007.0
20260504060138 38 0 0.0 0.0 0.00 0.00 0.00 49 1008.0
20260504045017 37 0 0.0 0.0 0.00 0.00 0.00 56 1010.0
20260504043955 37 0 0.0 0.0 0.00 0.00 0.00 56 1010.0
20260504043117 38 0 0.0 0.0 0.00 0.00 0.00 56 1010.0
20260504042055 37 0 0.0 0.0 0.00 0.00 0.00 56 1010.0
20260504041033 37 0 0.0 0.0 0.00 0.00 0.00 57 1010.0
20260504035905 37 0 0.0 0.0 0.00 0.00 0.00 59 1010.0
20260504034843 37 0 0.0 0.0 0.00 0.00 0.00 57 1010.0
20260504033821 38 0 0.0 0.0 0.00 0.00 0.00 55 1010.0
20260504032758 38 0 0.0 0.0 0.00 0.00 0.00 59 1010.0
20260504031736 37 0 0.0 0.0 0.00 0.00 0.00 61 1010.0
20260504030714 37 0 0.0 0.0 0.00 0.00 0.00 61 1011.0
20260504025652 37 0 0.0 0.0 0.00 0.00 0.00 63 1011.0
20260504024630 37 0 0.0 0.0 0.00 0.00 0.00 58 1011.0
20260504023608 36 0 0.0 0.0 0.00 0.00 0.00 61 1011.0
20260504022546 36 0 0.0 0.0 0.00 0.00 0.00 67 1011.0
20260504021524 37 0 0.0 0.0 0.00 0.00 0.00 66 1011.0
20260504020502 36 0 0.0 0.0 0.00 0.00 0.00 68 1011.0
20260504015440 36 0 0.0 0.0 0.00 0.00 0.00 70 1011.0
20260504014418 35 0 0.0 0.0 0.00 0.00 0.00 72 1011.0
20260504013356 36 0 0.0 0.0 0.00 0.00 0.00 71 1011.0
20260504012334 36 0 0.0 0.0 0.00 0.00 0.00 70 1011.0
20260504011312 35 0 0.0 0.0 0.00 0.00 0.00 73 1011.0
20260504010250 35 0 0.0 0.0 0.00 0.00 0.00 71 1011.0
20260504005736 35 0 0.0 0.0 0.00 0.00 0.00 73 1011.0
20260504004714 35 0 0.0 0.0 0.00 0.00 0.00 74 1011.0
20260504003652 34 0 0.0 0.0 0.00 0.00 0.00 77 1010.0
20260504002630 33 0 0.0 0.0 0.00 0.00 0.00 77 1010.0
20260504001608 33 0 0.0 0.0 0.00 0.00 0.00 77 1010.0